Home   Weather   Weymouth   Past weeks

Flag for United Kingdom Past Weather in Weymouth, England, United Kingdom — Yesterday and Last 2 Weeks

Now
50 °F

Drizzle. Cloudy.


Feels Like: 44 °F
Forecast: 47 / 52 °F
Wind: 17 mph from Southeast

Location: Isle Of Portland

Current Time: Apr 30, 2017 at 4:18:59 pm

Latest Report: Apr 30, 2017 at 3:00 pm


Visibility: 6 mi

Pressure: 29.41 "Hg

Humidity: 95%

Dew Point: 48 °F

Location of WeymouthLocation

Past Weather in Weymouth — Graph

°F

Weymouth Temperature Yesterday

Maximum temperature yesterday: 55 °F (at 2:00 pm)
Minimum temperature yesterday: 47 °F (at 3:00 am)
Average temperature yesterday: 51 °F

High & Low Weather Summary for the Past Weeks

 TemperatureHumidityPressure
High58 °F (Apr 22, 3:00 pm)97% (Apr 24, 2:00 am)30.65 "Hg (Apr 24, 2:00 am)
Low37 °F (Apr 26, 6:00 am)40% (Apr 25, 2:00 pm)29.44 "Hg (Apr 30, 11:00 am)
Average49 °F76%30.22 "Hg
* Reported Apr 15 2:00 pm — Apr 30 2:00 pm, Weymouth, Weather by CustomWeather, © 2017

Note: Actual official high and low records may vary slightly from our data, if they occured in-between our weather recording intervals... More about our weather records

Advertising

Weymouth Weather History for the Previous 24 Hours

Scroll right to see more
 ConditionsComfort  
Time TempWeatherWind HumidityBarometerVisibility
2:00 pm
Sun, Apr 30
49 °FLight rain. Cloudy.21 mph96%29.44 "Hg9 mi
1:00 pm49 °FRain. Cloudy.20 mph95%29.44 "Hg4 mi
12:00 pm50 °FLight rain. Cloudy.18 mph89%29.44 "Hg7 mi
11:00 am52 °FCool.22 mph85%29.44 "Hg9 mi
10:00 am51 °FCool.20 mph86%29.47 "Hg7 mi
9:00 am52 °FCool.26 mph83%29.47 "Hg8 mi
8:00 am52 °FCool.25 mph83%29.50 "Hg8 mi
7:00 am52 °FCool.28 mph80%29.50 "Hg8 mi
6:00 am52 °FCool.29 mph80%29.54 "Hg7 mi
5:00 am52 °FCool.30 mph80%29.57 "Hg8 mi
4:00 am52 °FCool.32 mph80%29.59 "Hg7 mi
3:00 am53 °FCool.31 mph78%29.61 "Hg9 mi
2:00 am53 °FCool.31 mph77%29.64 "Hg9 mi
1:00 am53 °FCool.28 mph79%29.66 "Hg11 mi
12:00 am53 °FCool.26 mph84%29.69 "Hg9 mi
11:00 pm
Sat, Apr 29
52 °FCool.25 mph87%29.71 "Hg7 mi
10:00 pm52 °FCool.26 mph86%29.74 "Hg7 mi
9:00 pm52 °FCool.26 mph84%29.76 "Hg9 mi
8:00 pm51 °FCool.24 mph83%29.78 "Hg14 mi
7:00 pm51 °FCool.25 mph84%29.80 "Hg11 mi
6:00 pm51 °FCool.24 mph82%29.83 "Hg15 mi
5:00 pm53 °FCool.22 mph77%29.85 "Hg19 mi
4:00 pm54 °FCool.20 mph72%29.88 "Hg11 mi
Weather by CustomWeather, © 2017

See weather overviewHow to use our weather pages